Flag for U.S.A. Weather past 2 weeks in Paradise, California, U.S.A.

Now
90 °F

Clear.


Feels Like: 86 °F
Forecast: 70 / 92 °F
Wind: 10 mph from Southeast

Location: Chico Municipal

Current Time: Jul 28, 2014 at 10:58:57 PM

Latest Report: Jul 28, 2014 at 10:15 PM


Visibility: 10 mi

Pressure: 29.95 "Hg

Humidity: 15%

Dew point: 36 °F

Location of ParadiseLocation

Historic Weather in Paradise — Graph

°F

Paradise temperature yesterday

Maximum temperature yesterday: 99 °F (at 3:51 PM)
Minimum temperature yesterday: 75 °F (at 3:15 AM)
Average temperature yesterday: 85 °F

Past Weeks' High & Low Weather Summary

 TemperatureHumidityPressure
High106 °F (Jul 14, 4:53 PM)78% (Jul 23, 3:35 AM)30.13 "Hg (Jul 23, 3:35 AM)
Low63 °F (Jul 23, 5:35 AM)9% (Jul 25, 6:55 PM)29.77 "Hg (Jul 14, 4:53 PM)
Average80 °F40%29.90 "Hg
* Reported Jul 13 9:15 PM — Jul 28 9:55 PM, Paradise, Weather by CustomWeather, © 2014

Note: Actual official high and low records may vary slightly from our data, if they occured in-between our weather recording intervals... More about our weather records

Advertising

Paradise weather history for previous 24 hours

 ConditionsComfort  
Time TempWeatherWind HumidityBarometerVisibility
9:55 PM
Jul 28
90 °FClear.14 mph15%29.95 "Hg10 mi
9:35 PM90 °FClear.12 mph15%29.95 "Hg10 mi
9:15 PM90 °FSunny.13 mph15%29.95 "Hg10 mi
8:55 PM91 °FSunny.14 mph15%29.94 "Hg10 mi
8:35 PM91 °FSunny.15 mph15%29.93 "Hg10 mi
7:55 PM93 °FSunny.15 mph19%29.92 "Hg10 mi
7:35 PM91 °FSunny.13 mph23%29.92 "Hg10 mi
7:15 PM91 °FSunny.15 mph24%29.91 "Hg10 mi
6:55 PM91 °FSunny.14 mph24%29.91 "Hg10 mi
3:47 PM99 °FBroken clouds.12 mph19%29.92 "Hg25 mi
2:48 PM95 °FBroken clouds.16 mph23%29.94 "Hg25 mi
1:48 PM93 °FPartly sunny.12 mph26%29.96 "Hg25 mi
12:48 PM91 °FPartly sunny.12 mph28%29.97 "Hg40 mi
11:49 AM90 °FScattered clouds.7 mph31%29.98 "Hg25 mi
10:50 AM86 °FPleasantly warm.6 mph31%29.98 "Hg25 mi
9:51 AM82 °FScattered clouds.9 mph32%29.98 "Hg40 mi
8:55 AM81 °FScattered clouds.No wind39%29.98 "Hg40 mi
7:48 AM77 °FScattered clouds.No wind34%29.97 "Hg40 mi
6:55 AM73 °FPassing clouds.No wind38%29.97 "Hg40 mi
6:35 AM73 °FClear.No wind38%29.96 "Hg10 mi
6:15 AM72 °FClear.No wind41%29.95 "Hg10 mi
5:55 AM72 °FClear.3 mph41%29.95 "Hg10 mi
5:35 AM73 °FClear.No wind41%29.94 "Hg10 mi
5:15 AM73 °FClear.No wind41%29.94 "Hg10 mi
4:55 AM72 °FClear.5 mph44%29.93 "Hg10 mi
4:35 AM73 °FClear.No wind47%29.93 "Hg10 mi
4:15 AM73 °FClear.No wind44%29.92 "Hg10 mi
3:55 AM75 °FClear.No wind39%29.92 "Hg10 mi
3:35 AM75 °FClear.5 mph36%29.91 "Hg10 mi
3:15 AM75 °FClear.6 mph34%29.91 "Hg10 mi
2:55 AM75 °FClear.3 mph34%29.91 "Hg10 mi
2:35 AM75 °FClear.3 mph36%29.91 "Hg10 mi
2:15 AM75 °FClear.6 mph36%29.91 "Hg10 mi
1:55 AM79 °FClear.3 mph32%29.91 "Hg10 mi
1:35 AM82 °FClear.3 mph28%29.91 "Hg10 mi
1:15 AM82 °FClear.5 mph28%29.90 "Hg10 mi
12:55 AM82 °FClear.3 mph28%29.90 "Hg10 mi
12:35 AM82 °FClear.No wind28%29.90 "Hg10 mi
11:55 PM
Jul 27
84 °FClear.No wind25%29.90 "Hg10 mi
11:35 PM84 °FClear.No wind25%29.89 "Hg10 mi
11:15 PM84 °FClear.5 mph25%29.89 "Hg10 mi
10:55 PM84 °FClear.5 mph27%29.89 "Hg10 mi
10:35 PM86 °FClear.7 mph25%29.89 "Hg10 mi
10:15 PM86 °FClear.7 mph20%29.89 "Hg10 mi
Weather by CustomWeather, © 2014

See weather overviewHow to use our weather pages